Weather History for Fairmont, MN

Change the Weather History Date:

Sunday, March 30, 2014

  Actual Average Record
Temperature  
Mean Temperature 48 °F -  
Max Temperature 62 °F 49 °F 81 °F (1968)
Min Temperature 35 °F 29 °F -3 °F (1969)
Degree Days  
Heating Degree Days 16    
Moisture  
Dew Point 35 °F    
Average Humidity 59    
Maximum Humidity 75    
Minimum Humidity 42    
Precipitation  
Precipitation 0.00 in - - ()
Sea Level Pressure  
Sea Level Pressure 29.84 in    
Wind  
Wind Speed 18 mph (South)    
Max Wind Speed 24 mph    
Max Gust Speed 31 mph    
Visibility 10 miles    
Events      
Averages and records for this station are not official NWS values.
T = Trace of Precipitation, MM = Missing Value Source: NWS Daily Summary

Daily Weather History Graph

Daily Weather History Graph

Search for Another Location

Airport:

Trip Planner

Search our weather history database for the weather conditions in past years. The results will help you decide how hot, cold, wet, or windy it might be!

Date:

Astronomy

Mar. 30, 2014 Rise Set
Actual Time 7:02 AM CDT 7:42 PM CDT
Civil Twilight 6:33 AM CDT 8:11 PM CDT
Nautical Twilight 5:59 AM CDT 8:45 PM CDT
Astronomical Twilight 5:24 AM CDT 9:20 PM CDT
Moon 6:49 AM CDT (3/30) 7:56 PM CDT (3/30)
Length of Visible Light 13h 37m
Length of Day
12h 39m
Waning Crescent, 0% of the Moon is Illuminated
Mar 30
Waning Crescent
Mar 30
New
Apr 7
First Quarter
Apr 15
Full
Apr 22
Last Quarter

Hourly Weather History & Observations

Time (CDT) Temp. Windchill Dew Point Humidity Pressure Visibility Wind Dir Wind Speed Gust Speed Precip Events Conditions
12:15 AM 37.4 °F 27.5 °F 28.4 °F 70% 30.01 in 10.0 mi SSE 18.4 mph 24.2 mph N/A   Clear
12:35 AM 37.4 °F 27.5 °F 28.4 °F 70% 30.01 in 10.0 mi SSE 18.4 mph - N/A   Clear
12:55 AM 37.4 °F 27.5 °F 28.4 °F 70% 30.01 in 10.0 mi South 18.4 mph - N/A   Clear
1:15 AM 35.6 °F 25.5 °F 28.4 °F 75% 30.01 in 10.0 mi South 17.3 mph 21.9 mph N/A   Clear
1:35 AM 35.6 °F 25.2 °F 28.4 °F 75% 29.99 in 10.0 mi SSE 18.4 mph - N/A   Clear
1:55 AM 35.6 °F 25.5 °F 28.4 °F 75% 29.98 in 10.0 mi SSE 17.3 mph - N/A   Clear
2:15 AM 37.4 °F 26.9 °F 28.4 °F 70% 29.97 in 10.0 mi South 20.7 mph - N/A   Clear
2:35 AM 37.4 °F 26.9 °F 28.4 °F 70% 29.96 in 10.0 mi South 20.7 mph - N/A   Clear
2:55 AM 37.4 °F 27.2 °F 28.4 °F 70% 29.95 in 10.0 mi SSE 19.6 mph 26.5 mph N/A   Partly Cloudy
3:15 AM 37.4 °F 26.6 °F 28.4 °F 70% 29.94 in 10.0 mi South 21.9 mph 28.8 mph N/A   Clear
3:35 AM 37.4 °F 27.2 °F 28.4 °F 70% 29.93 in 10.0 mi South 19.6 mph - N/A   Clear
3:55 AM 37.4 °F 27.5 °F 28.4 °F 70% 29.92 in 10.0 mi South 18.4 mph - N/A   Clear
4:15 AM 37.4 °F 27.5 °F 28.4 °F 70% 29.92 in 10.0 mi South 18.4 mph - N/A   Clear
4:35 AM 37.4 °F 26.9 °F 28.4 °F 70% 29.91 in 10.0 mi SSE 20.7 mph 26.5 mph N/A   Clear
4:55 AM 37.4 °F 26.1 °F 28.4 °F 70% 29.90 in 10.0 mi South 24.2 mph 28.8 mph N/A   Clear
5:15 AM 37.4 °F 26.6 °F 28.4 °F 70% 29.90 in 10.0 mi South 21.9 mph 29.9 mph N/A   Clear
5:35 AM 37.4 °F 27.2 °F 28.4 °F 70% 29.89 in 10.0 mi South 19.6 mph - N/A   Clear
5:55 AM 37.4 °F 26.9 °F 28.4 °F 70% 29.89 in 10.0 mi South 20.7 mph - N/A   Clear
6:15 AM 37.4 °F 27.2 °F 28.4 °F 70% 29.88 in 10.0 mi South 19.6 mph - N/A   Clear
6:35 AM 37.4 °F 27.2 °F 28.4 °F 70% 29.88 in 10.0 mi South 19.6 mph - N/A   Clear
6:55 AM 35.6 °F 24.5 °F 28.4 °F 75% 29.88 in 10.0 mi South 20.7 mph - N/A   Clear
7:15 AM 35.6 °F 24.8 °F 28.4 °F 75% 29.88 in 10.0 mi South 19.6 mph - N/A   Clear
7:35 AM 35.6 °F 25.5 °F 28.4 °F 75% 29.88 in 10.0 mi South 17.3 mph 24.2 mph N/A   Clear
7:55 AM 37.4 °F 27.5 °F 30.2 °F 75% 29.88 in 10.0 mi South 18.4 mph - N/A   Clear
8:15 AM 37.4 °F 27.8 °F 30.2 °F 75% 29.89 in 10.0 mi South 17.3 mph - N/A   Clear
8:35 AM 39.2 °F 29.8 °F 30.2 °F 70% 29.89 in 10.0 mi South 18.4 mph 24.2 mph N/A   Clear
8:55 AM 41.0 °F 31.9 °F 32.0 °F 70% 29.90 in 9.0 mi South 19.6 mph 24.2 mph N/A   Clear
9:15 AM 42.8 °F 34.3 °F 33.8 °F 70% 29.89 in 9.0 mi South 19.6 mph - N/A   Clear
9:35 AM 44.6 °F 35.7 °F 33.8 °F 66% 29.88 in 9.0 mi South 24.2 mph 29.9 mph N/A   Clear
9:55 AM 44.6 °F 36.1 °F 33.8 °F 66% 29.88 in 9.0 mi South 21.9 mph 31.1 mph N/A   Clear
10:15 AM 46.4 °F 39.2 °F 33.8 °F 62% 29.89 in 8.0 mi SSW 18.4 mph 28.8 mph N/A   Clear
10:35 AM 48.2 °F - 35.6 °F 62% 29.90 in 8.0 mi South 15.0 mph 24.2 mph N/A   Clear
10:55 AM 48.2 °F - 35.6 °F 62% 29.89 in 9.0 mi South 16.1 mph 21.9 mph N/A   Clear
11:15 AM 51.8 °F - 37.4 °F 58% 29.88 in 9.0 mi South 19.6 mph - N/A   Clear
11:35 AM 53.6 °F - 37.4 °F 54% 29.88 in 9.0 mi SSW 20.7 mph 26.5 mph N/A   Clear
11:55 AM 57.2 °F - 37.4 °F 48% 29.87 in 10.0 mi SSW 18.4 mph 26.5 mph N/A   Clear
12:15 PM 57.2 °F - 37.4 °F 48% 29.86 in 10.0 mi SSW 21.9 mph 25.3 mph N/A   Clear
12:35 PM 57.2 °F - 37.4 °F 48% 29.86 in 10.0 mi South 18.4 mph 24.2 mph N/A   Clear
12:55 PM 60.8 °F - 37.4 °F 42% 29.85 in 10.0 mi SSW 19.6 mph 24.2 mph N/A   Clear
1:15 PM 60.8 °F - 39.2 °F 45% 29.84 in 10.0 mi SSW 19.6 mph - N/A   Clear
1:35 PM 60.8 °F - 37.4 °F 42% 29.84 in 10.0 mi SSW 19.6 mph 25.3 mph N/A   Clear
1:55 PM 60.8 °F - 39.2 °F 45% 29.82 in 10.0 mi South 21.9 mph 25.3 mph N/A   Clear
2:15 PM 60.8 °F - 37.4 °F 42% 29.83 in 10.0 mi SSW 16.1 mph 25.3 mph N/A   Clear
2:35 PM 60.8 °F - 39.2 °F 45% 29.82 in 10.0 mi South 15.0 mph 20.7 mph N/A   Clear
2:55 PM 62.6 °F - 39.2 °F 42% 29.81 in 10.0 mi South 17.3 mph - N/A   Clear
3:15 PM 60.8 °F - 37.4 °F 42% 29.81 in 10.0 mi South 16.1 mph - N/A   Clear
3:35 PM 62.6 °F - 39.2 °F 42% 29.79 in 10.0 mi South 15.0 mph 19.6 mph N/A   Clear
3:55 PM 62.6 °F - 39.2 °F 42% 29.79 in 10.0 mi South 15.0 mph - N/A   Clear
4:15 PM 62.6 °F - 39.2 °F 42% 29.78 in 10.0 mi South 12.7 mph - N/A   Clear
4:35 PM 62.6 °F - 41.0 °F 45% 29.78 in 10.0 mi South 8.1 mph - N/A   Clear
4:55 PM 62.6 °F - 42.8 °F 48% 29.78 in 10.0 mi South 11.5 mph - N/A   Clear
5:15 PM 62.6 °F - 42.8 °F 48% 29.78 in 10.0 mi South 10.4 mph - N/A   Clear
5:35 PM 62.6 °F - 42.8 °F 48% 29.77 in 10.0 mi South 15.0 mph - N/A   Clear
5:55 PM 62.6 °F - 41.0 °F 45% 29.76 in 10.0 mi South 9.2 mph - N/A   Clear
6:15 PM 60.8 °F - 42.8 °F 52% 29.75 in 10.0 mi SSE 6.9 mph - N/A   Clear
6:35 PM 60.8 °F - 39.2 °F 45% 29.75 in 10.0 mi SSE 10.4 mph - N/A   Clear
6:55 PM 59.0 °F - 39.2 °F 48% 29.75 in 10.0 mi SE 10.4 mph - N/A   Clear
7:15 PM 57.2 °F - 42.8 °F 59% 29.74 in 10.0 mi SE 11.5 mph - N/A   Clear
7:35 PM 57.2 °F - 39.2 °F 51% 29.73 in 10.0 mi SE 15.0 mph - N/A   Clear
7:55 PM 55.4 °F - 41.0 °F 58% 29.73 in 10.0 mi SE 16.1 mph - N/A   Clear
8:15 PM 53.6 °F - 41.0 °F 62% 29.73 in 10.0 mi SE 13.8 mph - N/A   Clear
8:35 PM 53.6 °F - 41.0 °F 62% 29.73 in 10.0 mi SE 15.0 mph - N/A   Clear
8:55 PM 53.6 °F - 39.2 °F 58% 29.73 in 10.0 mi SE 15.0 mph - N/A   Clear
9:15 PM 51.8 °F - 39.2 °F 62% 29.73 in 10.0 mi SE 16.1 mph 21.9 mph N/A   Clear
9:35 PM 51.8 °F - 39.2 °F 62% 29.73 in 10.0 mi SE 16.1 mph - N/A   Clear
9:55 PM 53.6 °F - 37.4 °F 54% 29.73 in 10.0 mi SSE 17.3 mph - N/A   Clear
10:15 PM 53.6 °F - 37.4 °F 54% 29.73 in 10.0 mi SSE 19.6 mph - N/A   Clear
10:35 PM 53.6 °F - 35.6 °F 51% 29.72 in 10.0 mi SSE 18.4 mph - N/A   Clear
10:55 PM 51.8 °F - 35.6 °F 54% 29.72 in 10.0 mi SSE 18.4 mph 25.3 mph N/A   Clear
11:15 PM 51.8 °F - 35.6 °F 54% 29.72 in 10.0 mi SSE 19.6 mph 24.2 mph N/A   Clear
11:35 PM 51.8 °F - 35.6 °F 54% 29.71 in 10.0 mi SSE 19.6 mph - N/A   Clear
11:55 PM 51.8 °F - 35.6 °F 54% 29.71 in 10.0 mi SSE 18.4 mph - N/A   Clear